Tracking 30107 objects as of 18-Jan-2025
HD Live streaming from Space Station
objects crossing your sky now

SL-12 R/B(2)

Track SL-12 R/B(2) now!


NORAD ID: 28119
Int'l Code: 2003-053E
Perigee: 34,926.4 km
Apogee: 36,787.6 km
Inclination: 13.3 °
Period: 1,439.3 minutes
Semi major axis: 42227 km
RCS: 1.9952 m2 (large)
Launch date: November 24, 2003
Source: Commonwealth of Independent States (former USSR) (CIS)
Launch site: TYURATAM MISSILE AND SPACE COMPLEX (TTMTR)

Note: This is a ROCKET BODY
Your satellite tracking list
Your tracking list is empty




NASA's NSSDC Master Catalog

Two Line Element Set (TLE):
1 28119U 03053E   25017.38489799  .00000034  00000-0  00000-0 0  9991
2 28119  13.2517  17.0879 0220382 289.9804 155.2150  1.00046526 79561
Source of the keplerian elements: AFSPC